カタログに戻る

CZ-4C R/B

運用中LEO
NORAD 54250·ROCKET BODY·🇨🇳 China

打ち上げ Nov 15, 2022 から Jiuquan Satellite Launch Center

Loading…

次のパス (今後24時間)

TLE

最新Source: Space-Track

元期: Sep 14, 2026, 23:26 UTC

1 54250U 22154B   26257.97660927 -.00000007  00000-0  84470-4 0  9993
2 54250  63.4029 241.0803 0238094  23.9199 337.2687 13.69012611191646

AllMySatでCZ-4C R/Bをリアルタイム追跡

Download on the App Store